• MPC Preparation (Info)

  • MPEC 2004-S61 : 2004 SV55

    The following Minor Planet Electronic Circular may be linked-to from your own Web pages, but must not otherwise be redistributed electronically.

    A form allowing access to any MPEC is at the bottom of this page.


    Read MPEC 2004-S60 Read MPEC 2004-S62


    M.P.E.C. 2004-S61                                Issued 2004 Sept. 26, 03:29 UT
    
         The Minor Planet Electronic Circulars contain information on unusual
             minor planets and routine data on comets.  They are published
       on behalf of Commission 20 of the International Astronomical Union by the
              Minor Planet Center, Smithsonian Astrophysical Observatory,
                              Cambridge, MA 02138, U.S.A.
    
                      Supported in part by the Brinson Foundation
                 Prepared using the Tamkin Foundation Computer Network
    
                                  MPC@CFA.HARVARD.EDU
              URL http://cfa-www.harvard.edu/iau/mpc.html  ISSN 1523-6714
    
                                       2004 SV55
    
    Observations:
         K04S55V* C2004 09 24.10176 17 10 09.19 +06 59 30.4          16.9   ES061704
         K04S55V  C2004 09 24.11400 17 10 21.40 +07 01 17.2          17.5   ES061704
         K04S55V  C2004 09 24.12632 17 10 33.65 +07 03 05.6          18.0   ES061704
         K04S55V  C2004 09 24.13861 17 10 45.95 +07 04 52.4          17.1   ES061704
         K04S55V  C2004 09 24.15091 17 10 58.24 +07 06 39.5          17.4   ES061704
         K04S55V  C2004 09 25.12774 17 26 46.34 +09 21 39.9          17.7 R ES061854
         K04S55V  C2004 09 25.13317 17 26 51.35 +09 22 22.7          17.8 R ES061854
         K04S55V  C2004 09 25.13871 17 26 56.44 +09 23 05.8          17.3 R ES061854
         K04S55V tC2004 09 25.34965 17 30 11.99 +09 51 13.3          17.6 R ES061474
         K04S55V tC2004 09 25.35093 17 30 13.15 +09 51 24.4          17.8 R ES061474
         K04S55V tC2004 09 25.35208 17 30 14.30 +09 51 32.6                 ES061474
         K04S55V  C2004 09 25.35312 17 30 15.10 +09 51 40.0          17.6 R ES061474
         K04S55V  C2004 09 25.35382 17 30 15.72 +09 51 45.3          17.5 R ES061474
         K04S55V  C2004 09 25.35530 17 30 17.07 +09 51 56.8          17.4 R ES061474
         K04S55V  C2004 09 25.35789 17 30 19.37 +09 52 16.1          18.1 R ES061474
         K04S55V  C2004 09 25.35995 17 30 21.32 +09 52 31.6          18.3 R ES061474
         K04S55V  C2004 09 25.82524 17 37 19.93 +10 49 32.0          17.7 R ES061176
         K04S55V  C2004 09 25.82582 17 37 20.44 +10 49 36.3          17.3 R ES061176
         K04S55V  C2004 09 25.82640 17 37 20.95 +10 49 40.7          17.5 R ES061176
         K04S55V  C2004 09 25.82698 17 37 21.45 +10 49 45.0          17.4 R ES061176
         K04S55V  C2004 09 25.82756 17 37 21.96 +10 49 49.4          17.4 R ES061176
    
    Observer details:
    176 Observatori Astronomic de Consell.  Observers A. Lopez, R. Pacheco,
        J. Forteza.  0.41-m f/4 reflector + CCD.
    474 Mount John Observatory, Lake Tekapo.  Observers A. C. Gilmore,
        P. M. Kilmartin.  Measurer P. M. Kilmartin.  0.6-m f/6.4 reflector + CCD.
    704 Lincoln Laboratory ETS, New Mexico.  Observers M. Blythe, F. Shelly,
        M. Bezpalko, R. Huber, L. Manguso, D. Torres, R. Kracke, M. McCleary,
        H. Stange, A. Milner.  Measurers J. Stuart, R. Sayer, J. Evans, J. Kommers.
        1.0-m f/2.15 reflector + CCD.
    854 Sabino Canyon Observatory, Tucson.  Observer J. E. McGaha.  0.36-m f/10.0
        Schmidt-Cassegrain + CCD.
    
    Orbital elements:
    2004 SV55
    Epoch 2004 Sept. 12.0 TT = JDT 2453260.5                MPC
    M  14.48292              (2000.0)            P               Q
    n   0.42094143     Peri.  280.79068     -0.01395398     +0.98477874
    a   1.7632813      Node   344.74255     -0.44242349     -0.16146536
    e   0.6590387      Incl.   41.17487     -0.89669769     +0.06434107
    P   2.34           H   18.2           G   0.15
    From 21 observations 2004 Sept. 24-25.
    
    Ephemeris:
    2004 SV55                a,e,i = 1.76, 0.66, 41                  q = 0.6012
    Date    TT    R. A. (2000) Decl.     Delta      r     Elong.  Phase     V
    2004 09 22    16 32.16   +01 24.1    0.186    0.952    68.7   100.8    18.1
    2004 10 02    18 48.02   +19 31.3    0.293    1.065    94.7    69.4    18.1
    2004 10 12    19 49.77   +24 57.5    0.449    1.177   102.1    56.0    18.8
    2004 10 22    20 25.34   +26 57.0    0.616    1.286   103.4    48.8    19.5
    2004 11 01    20 51.23   +27 54.3    0.787    1.391   102.2    44.2    20.1
    2004 11 11    21 13.05   +28 30.4    0.959    1.491    99.8    40.9    20.6
    2004 11 21    21 33.07   +29 01.6    1.133    1.587    96.6    38.2    21.0
    2004 12 01    21 52.25   +29 35.1    1.307    1.678    93.0    35.9    21.4
    2004 12 11    22 11.06   +30 14.0    1.482    1.766    89.1    33.9    21.7
    2004 12 21    22 29.75   +31 00.0    1.655    1.849    84.9    32.0    22.0
    
    Kyle E. Smalley              (C) Copyright 2004 MPC           M.P.E.C. 2004-S61
    

    Read MPEC 2004-S60 Read MPEC 2004-S62


    MPEC number:

    Enter an MPEC number in one of the following forms:

    • 1997-B01 (the full form)
    • J97B01 (the packed version of the full form)
    • B01 (the abbreviated form)